TimeCST,TemperatureF,Dew PointF,Humidity,Sea Level PressureIn,VisibilityMPH,Wind Direction,Wind SpeedMPH,Gust SpeedMPH,PrecipitationIn,Events,Conditions,WindDirDegrees,DateUTC
12:56 AM,24.1,21.0,88,30.49,-9999.0,North,4.6,-,N/A,,Unknown,360,2012-11-27 06:56:00
1:56 AM,23.0,19.9,88,30.46,-9999.0,North,3.5,-,N/A,,Unknown,350,2012-11-27 07:56:00
2:56 AM,23.0,19.0,85,30.47,-9999.0,NW,3.5,-,N/A,,Unknown,310,2012-11-27 08:56:00
3:56 AM,21.0,18.0,88,30.47,-9999.0,NNW,3.5,-,N/A,,Unknown,330,2012-11-27 09:56:00
4:56 AM,21.0,18.0,88,30.45,-9999.0,WNW,3.5,-,N/A,,Unknown,290,2012-11-27 10:56:00
5:56 AM,19.9,17.1,89,30.48,-9999.0,SW,4.6,-,N/A,,Unknown,230,2012-11-27 11:56:00
6:56 AM,19.0,16.0,88,30.48,-9999.0,Calm,Calm,-,N/A,,Unknown,0,2012-11-27 12:56:00
7:56 AM,19.0,16.0,88,30.47,-9999.0,ENE,3.5,-,N/A,,Unknown,60,2012-11-27 13:56:00
8:56 AM,25.0,21.0,85,30.48,-9999.0,South,3.5,-,N/A,,Unknown,180,2012-11-27 14:56:00
9:56 AM,30.9,24.1,76,30.48,-9999.0,South,8.1,-,N/A,,Unknown,180,2012-11-27 15:56:00
10:56 AM,36.0,26.1,67,30.45,-9999.0,South,10.4,-,N/A,,Unknown,180,2012-11-27 16:56:00
11:56 AM,39.9,26.1,58,30.41,-9999.0,South,13.8,-,N/A,,Unknown,190,2012-11-27 17:56:00
12:56 PM,43.0,25.0,49,30.35,-9999.0,South,16.1,25.3,N/A,,Unknown,190,2012-11-27 18:56:00
1:56 PM,46.0,25.0,44,30.30,-9999.0,South,15.0,25.3,N/A,,Unknown,190,2012-11-27 19:56:00
2:56 PM,48.9,25.0,39,30.27,-9999.0,SSW,13.8,-,N/A,,Unknown,200,2012-11-27 20:56:00
3:56 PM,50.0,24.1,36,30.25,-9999.0,SSW,16.1,-,N/A,,Unknown,200,2012-11-27 21:56:00
4:56 PM,48.0,23.0,37,30.25,-9999.0,South,11.5,-,N/A,,Unknown,190,2012-11-27 22:56:00
5:56 PM,44.1,24.1,45,30.26,-9999.0,South,10.4,-,N/A,,Unknown,170,2012-11-27 23:56:00
6:56 PM,41.0,23.0,49,30.27,-9999.0,SSE,6.9,-,N/A,,Unknown,150,2012-11-28 00:56:00
7:56 PM,39.0,23.0,53,30.29,-9999.0,SSE,6.9,-,N/A,,Unknown,160,2012-11-28 01:56:00
8:56 PM,37.0,24.1,59,30.30,-9999.0,SSE,8.1,-,N/A,,Unknown,150,2012-11-28 02:56:00
9:56 PM,35.1,24.1,64,30.31,-9999.0,ESE,4.6,-,N/A,,Unknown,120,2012-11-28 03:56:00
10:56 PM,33.1,23.0,66,30.32,-9999.0,East,8.1,-,N/A,,Unknown,100,2012-11-28 04:56:00
11:56 PM,34.0,24.1,67,30.32,-9999.0,SE,4.6,-,N/A,,Unknown,130,2012-11-28 05:56:00